Location: Waco, TX
(31.5480°N, 97.1670°W)
Time: 15:25:00
(UTC-05:00)

ISS - Pass Details

Date: 23 August 2019
Orbit: 410 x 421 km, 51.6° (Epoch: 22 August)

Event Time Altitude Azimuth Distance (km) Brightness Sun altitude
Rises 13:40:23 0° 333° (NNW) 2,365 -0.1 69.7°
Reaches altitude 10° 13:43:24 10° 3° (N) 1,500 -1.0 69.6°
Maximum altitude 13:45:04 13° 32° (NNE) 1,325 -1.3 69.5°
Drops below altitude 10° 13:46:45 10° 62° (ENE) 1,498 -1.0 69.5°
Sets 13:49:44 0° 92° (E) 2,359 0.0 69.4°
